Okmulgee, OK

2:39 PM CDT on July 25, 2017 (GMT -0500)
Okmulgee Regional

Weather History for KOKM - August, 2013

Change the Weather History Date:

Thursday, August 22, 2013

  Actual Average (KMKO) Record (KMKO)
Temperature  
Mean Temperature 78 °F -  
Max Temperature 90 °F 90 °F 102 °F (2010)
Min Temperature 66 °F 67 °F 61 °F (2016)
Cooling Degree Days 12    
Growing Degree Days 28 (Base 50)    
Moisture  
Dew Point 70 °F    
Average Humidity 77    
Maximum Humidity 98    
Minimum Humidity 52    
Precipitation  
Precipitation 0.00 in - - ()
Sea Level Pressure  
Sea Level Pressure 30.05 in    
Wind  
Wind Speed 2 mph (East)    
Max Wind Speed 7 mph    
Max Gust Speed 16 mph    
Visibility 9 miles    
Events      
Averages and records for this station are not official NWS values.
T = Trace of Precipitation, MM = Missing Value Source: NWS Daily Summary

Daily Weather History Graph

Daily Weather History Graph

Search for Another Location

Airport or City:

Trip Planner

Search our weather history database for the weather conditions in past years. The results will help you decide how hot, cold, wet, or windy it might be!

Date:

Astronomy

Aug. 22, 2013 Rise Set
Actual Time 6:48 AM CDT 8:04 PM CDT
Civil Twilight 6:21 AM CDT 8:30 PM CDT
Nautical Twilight 5:50 AM CDT 9:02 PM CDT
Astronomical Twilight 5:16 AM CDT 9:35 PM CDT
Moon 8:55 PM CDT (8/22) 8:32 AM CDT (8/22)
Length of Visible Light 14h 08m
Length of Day
13h 15m
Waning Gibbous, 96% of the Moon is Illuminated
Aug 22
Waning Gibbous
Aug 28
Last Quarter
Sep 5
New
Sep 12
First Quarter
Sep 19
Full

Hourly Weather History & Observations

Time (CDT) Temp. Heat Index Dew Point Humidity Pressure Visibility Wind Dir Wind Speed Gust Speed Precip Events Conditions
12:15 AM 71.8 °F - 68.9 °F 91% 30.06 in 10.0 mi Calm Calm - N/A   Clear
12:35 AM 71.6 °F - 68.9 °F 91% 30.06 in 10.0 mi Calm Calm - N/A   Clear
12:55 AM 71.2 °F - 68.9 °F 92% 30.06 in 10.0 mi NE 4.6 mph - N/A   Clear
1:15 AM 69.8 °F - 68.2 °F 95% 30.05 in 10.0 mi NE 3.5 mph - N/A   Clear
1:35 AM 70.2 °F - 68.2 °F 93% 30.05 in 10.0 mi NNE 3.5 mph - N/A   Clear
1:55 AM 69.6 °F - 67.6 °F 93% 30.06 in 10.0 mi NNE 3.5 mph - N/A   Clear
2:15 AM 69.3 °F - 67.6 °F 95% 30.06 in 10.0 mi NNE 5.8 mph - N/A   Clear
2:35 AM 69.4 °F - 68.0 °F 95% 30.06 in 10.0 mi NNE 5.8 mph - N/A   Clear
2:55 AM 68.7 °F - 67.3 °F 95% 30.06 in 7.0 mi NNE 5.8 mph - N/A   Clear
3:15 AM 69.1 °F - 67.5 °F 95% 30.06 in 10.0 mi NNE 4.6 mph - N/A   Clear
3:35 AM 69.1 °F - 67.3 °F 94% 30.06 in 10.0 mi Calm Calm - N/A   Clear
3:55 AM 68.5 °F - 67.3 °F 96% 30.06 in 10.0 mi North - - N/A   Clear
4:15 AM 68.2 °F - 66.9 °F 96% 30.06 in 10.0 mi North - - N/A   Clear
4:35 AM 67.8 °F - 66.9 °F 97% 30.06 in 7.0 mi Calm Calm - N/A   Clear
4:55 AM 67.6 °F - 66.7 °F 97% 30.06 in 7.0 mi North - - N/A   Clear
5:15 AM 67.6 °F - 66.6 °F 96% 30.06 in 7.0 mi North - - N/A   Clear
5:35 AM 66.9 °F - 66.0 °F 97% 30.06 in 7.0 mi North - - N/A   Clear
5:55 AM 67.1 °F - 66.2 °F 97% 30.06 in 7.0 mi North - - N/A   Clear
6:15 AM 66.4 °F - 65.5 °F 97% 30.07 in 5.0 mi Calm Calm - N/A   Clear
6:35 AM 66.2 °F - 65.7 °F 98% 30.08 in 5.0 mi Calm Calm - N/A   Clear
6:55 AM 66.0 °F - 65.5 °F 98% 30.08 in 4.0 mi Calm Calm - N/A   Clear
7:15 AM 66.7 °F - 66.2 °F 98% 30.09 in 4.0 mi Calm Calm - N/A   Clear
7:35 AM 68.7 °F - 67.8 °F 97% 30.09 in 5.0 mi Calm Calm - N/A   Clear
7:55 AM 69.8 °F - 68.5 °F 96% 30.10 in 7.0 mi North 4.6 mph - N/A   Clear
8:15 AM 70.9 °F - 68.5 °F 92% 30.10 in 7.0 mi Calm Calm - N/A   Clear
8:35 AM 72.5 °F - 69.1 °F 89% 30.11 in 10.0 mi Calm Calm - N/A   Clear
8:55 AM 73.6 °F - 69.6 °F 87% 30.11 in 10.0 mi Calm Calm - N/A   Clear
9:15 AM 75.2 °F - 70.0 °F 84% 30.11 in 10.0 mi Calm Calm - N/A   Clear
9:35 AM 77.2 °F - 69.6 °F 77% 30.11 in 10.0 mi Calm Calm - N/A   Clear
9:55 AM 79.5 °F - 69.4 °F 71% 30.11 in 10.0 mi SSE 6.9 mph - N/A   Clear
10:15 AM 81.0 °F 84.2 °F 69.4 °F 68% 30.11 in 10.0 mi South 6.9 mph 16.1 mph N/A   Clear
10:35 AM 81.9 °F 85.4 °F 69.6 °F 66% 30.11 in 10.0 mi SSW 4.6 mph - N/A   Clear
10:55 AM 81.9 °F 85.8 °F 70.3 °F 68% 30.11 in 10.0 mi SSE 3.5 mph - N/A   Scattered Clouds
11:15 AM 84.2 °F 89.3 °F 71.2 °F 65% 30.10 in 10.0 mi South 4.6 mph - N/A   Mostly Cloudy
11:35 AM 84.2 °F 89.3 °F 71.4 °F 65% 30.10 in 10.0 mi SSE 5.8 mph - N/A   Scattered Clouds
11:55 AM 85.5 °F 91.5 °F 72.0 °F 64% 30.09 in 10.0 mi Calm Calm - N/A   Clear
12:15 PM 86.5 °F 91.8 °F 70.7 °F 59% 30.08 in 10.0 mi Calm Calm - N/A   Clear
12:35 PM 88.0 °F 93.8 °F 71.2 °F 57% 30.07 in 10.0 mi SW 3.5 mph - N/A   Clear
12:55 PM 87.8 °F 92.6 °F 69.8 °F 55% 30.06 in 10.0 mi Calm Calm - N/A   Clear
1:15 PM 88.3 °F 93.6 °F 70.3 °F 55% 30.06 in 10.0 mi WSW 3.5 mph - N/A   Clear
1:35 PM 88.7 °F 93.9 °F 70.3 °F 54% 30.06 in 10.0 mi Calm Calm - N/A   Clear
1:55 PM 88.9 °F 93.8 °F 70.0 °F 53% 30.05 in 10.0 mi WNW 4.6 mph - N/A   Clear
2:15 PM 88.9 °F 94.7 °F 70.9 °F 55% 30.05 in 10.0 mi Calm Calm - N/A   Clear
2:35 PM 89.4 °F 95.8 °F 71.1 °F 55% 30.04 in 10.0 mi SSE 6.9 mph - N/A   Clear
2:55 PM 89.2 °F 94.5 °F 70.0 °F 53% 30.04 in 10.0 mi South 4.6 mph - N/A   Clear
3:15 PM 89.1 °F 94.1 °F 69.8 °F 53% 30.04 in 10.0 mi East 3.5 mph - N/A   Clear
3:35 PM 89.2 °F 94.5 °F 70.3 °F 53% 30.03 in 10.0 mi SE 5.8 mph - N/A   Clear
3:55 PM 88.7 °F 94.3 °F 70.7 °F 55% 30.02 in 10.0 mi Calm Calm - N/A   Scattered Clouds
4:15 PM 89.8 °F 95.6 °F 70.3 °F 53% 30.01 in 10.0 mi East 5.8 mph - N/A   Clear
4:35 PM 89.8 °F 95.1 °F 69.8 °F 52% 30.01 in 10.0 mi ESE 5.8 mph - N/A   Clear
4:55 PM 88.7 °F 95.7 °F 72.1 °F 58% 30.01 in 10.0 mi ENE 3.5 mph - N/A   Clear
5:15 PM 89.8 °F 96.0 °F 71.1 °F 54% 30.01 in 10.0 mi East 4.6 mph - N/A   Clear
5:35 PM 89.1 °F 95.0 °F 71.2 °F 55% 30.00 in 10.0 mi East 5.8 mph - N/A   Clear
5:55 PM 87.6 °F 92.7 °F 70.2 °F 56% 30.00 in 10.0 mi ESE 5.8 mph - N/A   Clear
6:15 PM 88.0 °F 94.2 °F 71.4 °F 58% 30.00 in 10.0 mi East 4.6 mph - N/A   Clear
6:35 PM 88.5 °F 94.9 °F 71.6 °F 57% 29.99 in 10.0 mi East 4.6 mph - N/A   Clear
6:55 PM 86.7 °F 92.1 °F 70.9 °F 59% 29.99 in 7.0 mi East 3.5 mph - N/A   Clear
7:15 PM 86.9 °F 93.7 °F 72.7 °F 62% 29.99 in 10.0 mi ENE 3.5 mph - N/A   Clear
7:35 PM 85.3 °F 93.4 °F 74.3 °F 70% 29.99 in 10.0 mi Calm Calm - N/A   Clear
7:55 PM 83.7 °F 89.7 °F 72.9 °F 70% 30.00 in 7.0 mi East 3.5 mph - N/A   Clear
8:15 PM 82.2 °F 87.8 °F 73.0 °F 74% 30.00 in 10.0 mi Calm Calm - N/A   Clear
8:35 PM 81.5 °F 86.5 °F 72.9 °F 75% 30.00 in 10.0 mi East 3.5 mph - N/A   Scattered Clouds
8:55 PM 80.6 °F 84.9 °F 72.5 °F 76% 30.01 in 10.0 mi East 3.5 mph - N/A   Scattered Clouds
9:15 PM 79.9 °F - 72.5 °F 78% 30.01 in 10.0 mi SSE 6.9 mph - N/A   Mostly Cloudy
9:35 PM 78.8 °F - 72.5 °F 81% 30.02 in 10.0 mi South 5.8 mph - N/A   Scattered Clouds
9:55 PM 78.1 °F - 71.8 °F 81% 30.02 in 10.0 mi SSE 6.9 mph - N/A   Clear
10:15 PM 77.0 °F - 71.6 °F 83% 30.03 in 10.0 mi East 3.5 mph - N/A   Scattered Clouds
10:35 PM 76.3 °F - 72.3 °F 87% 30.03 in 10.0 mi Calm Calm - N/A   Mostly Cloudy
10:55 PM 77.2 °F - 71.8 °F 83% 30.03 in 10.0 mi Calm Calm - N/A   Mostly Cloudy
11:15 PM 76.6 °F - 71.6 °F 84% 30.04 in 10.0 mi Calm Calm - N/A   Scattered Clouds
11:35 PM 75.0 °F - 71.8 °F 90% 30.04 in 10.0 mi Calm Calm - N/A   Mostly Cloudy
11:55 PM 75.7 °F - 71.8 °F 87% 30.04 in 10.0 mi Calm Calm - N/A   Mostly Cloudy